[Iaude] MPEC G34: 2024 FL4 [a=2.48,e=0.57,i=15.8,H=21.0]

mpec at cfa.harvard.edu mpec at cfa.harvard.edu
Wed Apr 3 16:39:23 EDT 2024


M.P.E.C. 2024-G34                                 Issued 2024 April 3, 20:38 UT

     The Minor Planet Electronic Circulars contain information on unusual
         minor planets, routine data on comets and natural satellites,
         and occasional editorial announcements.  They are published
    on behalf of Division F of the International Astronomical Union by the
          Minor Planet Center, Smithsonian Astrophysical Observatory,
                          Cambridge, MA 02138, U.S.A.
			  
             Prepared using the Tamkin Foundation Computer Network

                              MPC at CFA.HARVARD.EDU
            URL https://www.minorplanetcenter.net/    ISSN 1523-6714

                                    2024 FL4                                    


Observations:
     K24F04L  S2024 03 31.21255 08 13 40.88 +12 26 46.6          19   RLEG034C51
     K24F04L  s2024 03 31.21255 1 - 3859.7575 + 5417.8480 + 1293.8859   EG034C51
     K24F04L  S2024 03 31.34116 08 13 53.84 +12 34 19.5                LEG034C51
     K24F04L  s2024 03 31.34116 1 - 3867.6422 + 5407.4906 + 1313.0788   EG034C51
     K24F04L* S2024 03 31.59826 08 14 20.13 +12 49 27.3          20   RLEG034C51
     K24F04L  s2024 03 31.59826 1 - 3901.1711 + 5393.3264 + 1271.3195   EG034C51
     K24F04L  S2024 03 31.72687 08 14 33.49 +12 57 04.1                LEG034C51
     K24F04L  s2024 03 31.72687 1 - 3908.6584 + 5382.8299 + 1292.2218   EG034C51
     K24F04L  S2024 03 31.79066 08 14 40.08 +13 00 52.3                LEG034C51
     K24F04L  s2024 03 31.79066 1 - 3980.7878 + 5397.7364 +  972.9227   EG034C51
     K24F04L  S2024 03 31.85548 08 14 46.88 +13 04 39.5                LEG034C51
     K24F04L  s2024 03 31.85548 1 - 3915.9432 + 5372.2165 + 1313.6862   EG034C51
     K24F04L  S2024 03 31.91928 08 14 53.71 +13 08 31.7                LEG034C51
     K24F04L  s2024 03 31.91928 1 - 3988.6696 + 5387.8016 +  994.8604   EG034C51
     K24F04L  S2024 03 31.98396 08 15 00.47 +13 12 17.5                LEG034C51
     K24F04L  s2024 03 31.98396 1 - 3941.3305 + 5368.0758 + 1253.5880   EG034C51
     K24F04L  S2024 04 01.04865 08 15 07.35 +13 16 06.6                LEG034C51
     K24F04L  s2024 04 01.04865 1 - 3887.8915 + 5340.2593 + 1510.5387   EG034C51
     K24F04L  S2024 04 01.17713 08 15 21.09 +13 23 45.2                LEG034C51
     K24F04L  s2024 04 01.17713 1 - 3914.0893 + 5337.5086 + 1451.6773   EG034C51
     K24F04L  S2024 04 01.30575 08 15 34.83 +13 31 24.1                LEG034C51
     K24F04L  s2024 04 01.30575 1 - 3921.1758 + 5326.8560 + 1473.5200   EG034C51
     K24F04L  S2024 04 01.43436 08 15 48.95 +13 39 04.1                LEG034C51
     K24F04L  s2024 04 01.43436 1 - 3927.4984 + 5315.5914 + 1496.7816   EG034C51
     K24F04L KC2024 04 02.38233008 17 35.184+14 36 26.86         20.9 GVEG034474
     K24F04L KC2024 04 02.40110408 17 37.176+14 37 34.61         20.7 GVEG034474
     K24F04L KC2024 04 02.40861308 17 37.985+14 38 01.39         21.0 GVEG034474
     K24F04L KC2024 04 02.41612208 17 38.786+14 38 28.50         21.1 GVEG034474
     K24F04L 7C2024 04 02.89614008 18 35.268+15 06 56.36         20.9 GVEG034Z84
     K24F04L 7C2024 04 02.90029408 18 35.734+15 07 11.58         20.8 GVEG034Z84
     K24F04L 7C2024 04 02.90447608 18 36.212+15 07 26.56         20.6 GVEG034Z84

Observer details:
474 Mount John Observatory, Lake Tekapo.  Observers A. C. Gilmore, P. M.
    Kilmartin.  Measurer P. M. Kilmartin.  0.6-m f/6.3 Reflector + CCD.
C51 WISE.  Observer Near-Earth Object Wide-field Infrared Survey Explorer.
    Measurers A. K. Mainzer, J. M. Bauer, T. Grav, J. R. Masiero, R. M. Cutri,
    J. W. Dailey, Y. G. Kwon, J. Pittichova, E. L. Wright.
Z84 Calar Alto-Schmidt.  Observers F. Ocana, R. Kresken, M. Micheli, L.
    Conversi.  Measurers F. Ocana, M. Micheli.  0.8-m f/3 Schmidt + CCD.

Orbital elements:
2024 FL4                                                 Earth MOID = 0.0971 AU
Epoch 2024 Mar. 31.0 TT = JDT 2460400.5                 Bell                    
M 352.07091              (2000.0)            P               Q                  
n   0.25303633     Peri.   26.78453     -0.86173765     +0.50702913             
a   2.4756019      Node   183.83095     -0.50043838     -0.85533569             
e   0.5689120      Incl.   15.76935     -0.08348449     -0.10640638             
P   3.90           H   21.09          G   0.15           U   9                  
Residuals in seconds of arc
240331 C51  0.6+  0.1-    240331 C51  0.0   0.1-    240402 474  0.0   0.2-
240331 C51  0.1+  0.3-    240401 C51  0.0   0.0     240402 474  0.0   0.2-
240331 C51  0.2-  1.2-    240401 C51  0.3+  0.1+    240402 Z84  0.2-  0.0
240331 C51  0.2+  0.0     240401 C51  1.3-  0.3-    240402 Z84  0.0   0.1+
240331 C51  0.6-  0.3+    240401 C51  0.9+  0.3-    240402 Z84  0.2+  0.1-
240331 C51  0.7-  1.0-    240402 474  0.0   0.3+
240331 C51  1.2+  2.9+    240402 474  0.1-  0.1+

Ephemeris:
2024 FL4                 a,e,i = 2.48, 0.57, 16                  q = 1.0672
Date    TT    R. A. (2000) Decl.     Delta      r    Elong.  Phase     V
2024 03 04    08 02 43.4 -08 13 18   0.3785  1.2821   133.6    34.1    20.9
...
2024 03 19    08 00 56.1 +01 38 29   0.3186  1.1937   121.6    45.3    20.7
...
2024 03 27    08 07 35.6 +08 27 21   0.2936  1.1538   115.2    51.5    20.6
...
2024 04 02    08 16 51.7 +14 12 54   0.2777  1.1280   110.7    56.0    20.6
2024 04 03    08 18 48.4 +15 13 25   0.2754  1.1241   110.0    56.7    20.6
2024 04 04    08 20 52.5 +16 14 43   0.2731  1.1203   109.3    57.4    20.6
...
2024 04 10    08 36 04.5 +22 36 00   0.2611  1.1000   105.3    61.5    20.6
...
2024 04 18    09 04 59.9 +31 23 16   0.2504  1.0802   101.0    65.8    20.6
...
2024 05 03    10 33 27.7 +45 57 12   0.2494  1.0674    97.0    69.6    20.7

M. P. C. Staff               (C) Copyright 2024 MPC           M.P.E.C. 2024-G34





More information about the Iaude mailing list